******** Week 354 almanac for PRN-01 ******** ID: 01 Health: 000 Eccentricity: 0.1403331757E-002 Time of Applicability(s): 405504.0000 Orbital Inclination(rad): 0.9584467758 Rate of Right Ascen(r/s): -0.7817468486E-008 SQRT(A) (m 1/2): 5153.586426 Right Ascen at Week(rad): -0.2395906841E+001 Argument of Perigee(rad): -0.008441763 Mean Anom(rad): -0.8348203579E+000 Af0(s): 0.3414154053E-003 Af1(s/s): -0.3637978807E-011 week: 354 ******** Week 354 almanac for PRN-02 ******** ID: 02 Health: 000 Eccentricity: 0.1697731018E-001 Time of Applicability(s): 405504.0000 Orbital Inclination(rad): 0.9639415429 Rate of Right Ascen(r/s): -0.7737465154E-008 SQRT(A) (m 1/2): 5153.564941 Right Ascen at Week(rad): -0.2558588200E+001 Argument of Perigee(rad): -0.843782311 Mean Anom(rad): 0.5582510371E+000 Af0(s): 0.2193450928E-004 Af1(s/s): 0.7275957614E-011 week: 354 ******** Week 354 almanac for PRN-03 ******** ID: 03 Health: 000 Eccentricity: 0.6364822388E-002 Time of Applicability(s): 405504.0000 Orbital Inclination(rad): 0.9925718562 Rate of Right Ascen(r/s): -0.7840326581E-008 SQRT(A) (m 1/2): 5153.600586 Right Ascen at Week(rad): -0.1409823843E+001 Argument of Perigee(rad): 1.209090698 Mean Anom(rad): -0.3063466368E+001 Af0(s): 0.5912780762E-003 Af1(s/s): -0.1091393642E-010 week: 354 ******** Week 354 almanac for PRN-04 ******** ID: 04 Health: 000 Eccentricity: 0.3732204437E-002 Time of Applicability(s): 405504.0000 Orbital Inclination(rad): 0.9705148902 Rate of Right Ascen(r/s): -0.8023191341E-008 SQRT(A) (m 1/2): 5153.696289 Right Ascen at Week(rad): -0.3385075402E+000 Argument of Perigee(rad): -2.906098889 Mean Anom(rad): -0.1857030550E-001 Af0(s): 0.4005432129E-004 Af1(s/s): 0.3637978807E-011 week: 354 ******** Week 354 almanac for PRN-05 ******** ID: 05 Health: 000 Eccentricity: 0.5374908447E-002 Time of Applicability(s): 405504.0000 Orbital Inclination(rad): 0.9791555164 Rate of Right Ascen(r/s): -0.7943188009E-008 SQRT(A) (m 1/2): 5153.633789 Right Ascen at Week(rad): -0.1469086959E+001 Argument of Perigee(rad): 1.424365577 Mean Anom(rad): 0.5977780069E+000 Af0(s): -0.2279281616E-003 Af1(s/s): 0.0000000000E+000 week: 354 ******** Week 354 almanac for PRN-06 ******** ID: 06 Health: 000 Eccentricity: 0.3869056702E-002 Time of Applicability(s): 405504.0000 Orbital Inclination(rad): 0.9874006631 Rate of Right Ascen(r/s): -0.7520313251E-008 SQRT(A) (m 1/2): 5153.572266 Right Ascen at Week(rad): -0.2446476525E+001 Argument of Perigee(rad): -0.618231708 Mean Anom(rad): -0.1688049983E+001 Af0(s): -0.6046295166E-003 Af1(s/s): -0.3637978807E-011 week: 354 ******** Week 354 almanac for PRN-07 ******** ID: 07 Health: 000 Eccentricity: 0.2022218704E-001 Time of Applicability(s): 405504.0000 Orbital Inclination(rad): 0.9510225484 Rate of Right Ascen(r/s): -0.7771752296E-008 SQRT(A) (m 1/2): 5153.591797 Right Ascen at Week(rad): 0.6700286518E+000 Argument of Perigee(rad): -2.003587509 Mean Anom(rad): -0.2594277971E+001 Af0(s): -0.1392364502E-003 Af1(s/s): -0.3637978807E-011 week: 354 ******** Week 354 almanac for PRN-08 ******** ID: 08 Health: 000 Eccentricity: 0.1144456863E-001 Time of Applicability(s): 405504.0000 Orbital Inclination(rad): 0.9442095166 Rate of Right Ascen(r/s): -0.8240343243E-008 SQRT(A) (m 1/2): 5153.609375 Right Ascen at Week(rad): 0.2718513562E+001 Argument of Perigee(rad): 0.505288628 Mean Anom(rad): 0.2532495172E+000 Af0(s): 0.5016326904E-003 Af1(s/s): -0.3637978807E-011 week: 354 ******** Week 354 almanac for PRN-09 ******** ID: 09 Health: 000 Eccentricity: 0.3355026245E-002 Time of Applicability(s): 405504.0000 Orbital Inclination(rad): 0.9646126595 Rate of Right Ascen(r/s): -0.8126052768E-008 SQRT(A) (m 1/2): 5153.520996 Right Ascen at Week(rad): -0.4024576113E+000 Argument of Perigee(rad): 2.069953525 Mean Anom(rad): 0.8371318153E+000 Af0(s): 0.7705688477E-003 Af1(s/s): 0.0000000000E+000 week: 354 ******** Week 354 almanac for PRN-10 ******** ID: 10 Health: 000 Eccentricity: 0.1096391678E-001 Time of Applicability(s): 405504.0000 Orbital Inclination(rad): 0.9921164556 Rate of Right Ascen(r/s): -0.7817468486E-008 SQRT(A) (m 1/2): 5153.603027 Right Ascen at Week(rad): -0.1412332666E+001 Argument of Perigee(rad): -2.264473225 Mean Anom(rad): 0.2248477655E+001 Af0(s): -0.5846023560E-003 Af1(s/s): -0.3637978807E-011 week: 354 ******** Week 354 almanac for PRN-11 ******** ID: 11 Health: 000 Eccentricity: 0.2239704132E-002 Time of Applicability(s): 405504.0000 Orbital Inclination(rad): 0.9642411485 Rate of Right Ascen(r/s): -0.7771752296E-008 SQRT(A) (m 1/2): 5153.735840 Right Ascen at Week(rad): -0.2426822022E+001 Argument of Perigee(rad): -2.247651118 Mean Anom(rad): -0.7277982334E+000 Af0(s): -0.4653930664E-003 Af1(s/s): 0.1455191523E-010 week: 354 ******** Week 354 almanac for PRN-12 ******** ID: 12 Health: 000 Eccentricity: 0.9078979492E-002 Time of Applicability(s): 405504.0000 Orbital Inclination(rad): 0.9588122946 Rate of Right Ascen(r/s): -0.8034620388E-008 SQRT(A) (m 1/2): 5153.503906 Right Ascen at Week(rad): 0.1787891684E+001 Argument of Perigee(rad): 1.537828473 Mean Anom(rad): 0.3072328328E+001 Af0(s): -0.6065368652E-003 Af1(s/s): 0.0000000000E+000 week: 354 ******** Week 354 almanac for PRN-13 ******** ID: 13 Health: 000 Eccentricity: 0.9912490845E-002 Time of Applicability(s): 405504.0000 Orbital Inclination(rad): 0.9762373576 Rate of Right Ascen(r/s): -0.7931758961E-008 SQRT(A) (m 1/2): 5153.623047 Right Ascen at Week(rad): -0.2279418302E+000 Argument of Perigee(rad): 1.001684960 Mean Anom(rad): -0.1719886077E-001 Af0(s): 0.6885528564E-003 Af1(s/s): 0.0000000000E+000 week: 354 ******** Week 354 almanac for PRN-14 ******** ID: 14 Health: 000 Eccentricity: 0.6538391113E-002 Time of Applicability(s): 405504.0000 Orbital Inclination(rad): 0.9421482299 Rate of Right Ascen(r/s): -0.8183198006E-008 SQRT(A) (m 1/2): 5153.587402 Right Ascen at Week(rad): 0.1733860806E+001 Argument of Perigee(rad): -2.762966048 Mean Anom(rad): 0.2876159674E+001 Af0(s): 0.7305145264E-003 Af1(s/s): 0.3637978807E-011 week: 354 ******** Week 354 almanac for PRN-15 ******** ID: 15 Health: 000 Eccentricity: 0.1660013199E-001 Time of Applicability(s): 405504.0000 Orbital Inclination(rad): 0.9423579538 Rate of Right Ascen(r/s): -0.8411778956E-008 SQRT(A) (m 1/2): 5153.618652 Right Ascen at Week(rad): -0.5455166746E+000 Argument of Perigee(rad): 1.495059770 Mean Anom(rad): -0.7534197573E+000 Af0(s): 0.3786087036E-003 Af1(s/s): 0.3637978807E-011 week: 354 ******** Week 354 almanac for PRN-16 ******** ID: 16 Health: 000 Eccentricity: 0.1504611969E-001 Time of Applicability(s): 405504.0000 Orbital Inclination(rad): 0.9579733989 Rate of Right Ascen(r/s): -0.8046049436E-008 SQRT(A) (m 1/2): 5153.570801 Right Ascen at Week(rad): 0.1804941117E+001 Argument of Perigee(rad): 0.923732820 Mean Anom(rad): 0.1255571889E+001 Af0(s): 0.1926422119E-003 Af1(s/s): 0.7275957614E-011 week: 354 ******** Week 354 almanac for PRN-17 ******** ID: 17 Health: 000 Eccentricity: 0.1278924942E-001 Time of Applicability(s): 405504.0000 Orbital Inclination(rad): 0.9599927408 Rate of Right Ascen(r/s): -0.8068907531E-008 SQRT(A) (m 1/2): 5153.512207 Right Ascen at Week(rad): 0.2822569216E+001 Argument of Perigee(rad): -1.133329049 Mean Anom(rad): 0.1483029107E+000 Af0(s): -0.4005432129E-004 Af1(s/s): -0.1091393642E-010 week: 354 ******** Week 354 almanac for PRN-18 ******** ID: 18 Health: 000 Eccentricity: 0.5702018738E-002 Time of Applicability(s): 405504.0000 Orbital Inclination(rad): 0.9723604609 Rate of Right Ascen(r/s): -0.7657461821E-008 SQRT(A) (m 1/2): 5153.603516 Right Ascen at Week(rad): -0.2450957502E+001 Argument of Perigee(rad): -2.856329152 Mean Anom(rad): -0.1835783643E+001 Af0(s): -0.4444122314E-003 Af1(s/s): 0.1091393642E-010 week: 354 ******** Week 354 almanac for PRN-19 ******** ID: 19 Health: 000 Eccentricity: 0.1099491119E-001 Time of Applicability(s): 405504.0000 Orbital Inclination(rad): 0.9592017819 Rate of Right Ascen(r/s): -0.8034620388E-008 SQRT(A) (m 1/2): 5153.652832 Right Ascen at Week(rad): 0.2866469304E+001 Argument of Perigee(rad): 2.917443456 Mean Anom(rad): 0.2005446188E+001 Af0(s): 0.6866455078E-003 Af1(s/s): 0.0000000000E+000 week: 354 ******** Week 354 almanac for PRN-21 ******** ID: 21 Health: 000 Eccentricity: 0.5836486816E-003 Time of Applicability(s): 405504.0000 Orbital Inclination(rad): 0.9620060906 Rate of Right Ascen(r/s): -0.8126052768E-008 SQRT(A) (m 1/2): 5153.689941 Right Ascen at Week(rad): -0.1402395122E+001 Argument of Perigee(rad): -0.456007997 Mean Anom(rad): 0.2890292071E+001 Af0(s): 0.3852844238E-003 Af1(s/s): 0.7275957614E-011 week: 354 ******** Week 354 almanac for PRN-22 ******** ID: 22 Health: 000 Eccentricity: 0.1220178604E-001 Time of Applicability(s): 405504.0000 Orbital Inclination(rad): 0.9574101403 Rate of Right Ascen(r/s): -0.8057478483E-008 SQRT(A) (m 1/2): 5153.571289 Right Ascen at Week(rad): 0.1808284716E+001 Argument of Perigee(rad): -0.997291244 Mean Anom(rad): 0.8010701590E+000 Af0(s): -0.5626678467E-004 Af1(s/s): 0.3637978807E-011 week: 354 ******** Week 354 almanac for PRN-23 ******** ID: 23 Health: 000 Eccentricity: 0.5997657776E-002 Time of Applicability(s): 405504.0000 Orbital Inclination(rad): 0.9871250260 Rate of Right Ascen(r/s): -0.7874613724E-008 SQRT(A) (m 1/2): 5153.651855 Right Ascen at Week(rad): -0.1444250027E+001 Argument of Perigee(rad): -2.746704578 Mean Anom(rad): -0.2936741054E+001 Af0(s): 0.6027221680E-003 Af1(s/s): 0.3637978807E-011 week: 354 ******** Week 354 almanac for PRN-24 ******** ID: 24 Health: 000 Eccentricity: 0.1783275604E-001 Time of Applicability(s): 405504.0000 Orbital Inclination(rad): 0.9350775372 Rate of Right Ascen(r/s): -0.7977475151E-008 SQRT(A) (m 1/2): 5153.603516 Right Ascen at Week(rad): 0.5622515212E+000 Argument of Perigee(rad): 1.130571554 Mean Anom(rad): -0.1614086718E+001 Af0(s): -0.1525878906E-003 Af1(s/s): 0.1455191523E-010 week: 354 ******** Week 354 almanac for PRN-25 ******** ID: 25 Health: 000 Eccentricity: 0.1294088364E-001 Time of Applicability(s): 405504.0000 Orbital Inclination(rad): 0.9471396596 Rate of Right Ascen(r/s): -0.8137481816E-008 SQRT(A) (m 1/2): 5153.682129 Right Ascen at Week(rad): 0.1694467161E+001 Argument of Perigee(rad): 1.152110202 Mean Anom(rad): 0.2916286229E+001 Af0(s): 0.4482269287E-003 Af1(s/s): -0.3637978807E-011 week: 354 ******** Week 354 almanac for PRN-26 ******** ID: 26 Health: 000 Eccentricity: 0.1096868515E-001 Time of Applicability(s): 405504.0000 Orbital Inclination(rad): 0.9279109707 Rate of Right Ascen(r/s): -0.8274630386E-008 SQRT(A) (m 1/2): 5153.635254 Right Ascen at Week(rad): 0.1620636846E+001 Argument of Perigee(rad): 0.703396104 Mean Anom(rad): 0.2087781183E+001 Af0(s): -0.3156661987E-003 Af1(s/s): -0.7275957614E-011 week: 354 ******** Week 354 almanac for PRN-27 ******** ID: 27 Health: 000 Eccentricity: 0.1420593262E-001 Time of Applicability(s): 405504.0000 Orbital Inclination(rad): 0.9533355038 Rate of Right Ascen(r/s): -0.8126052768E-008 SQRT(A) (m 1/2): 5153.605957 Right Ascen at Week(rad): 0.2750188617E+001 Argument of Perigee(rad): 0.868668678 Mean Anom(rad): 0.3449531807E+000 Af0(s): -0.2384185791E-004 Af1(s/s): -0.7275957614E-011 week: 354 ******** Week 354 almanac for PRN-28 ******** ID: 28 Health: 000 Eccentricity: 0.3981590271E-003 Time of Applicability(s): 405504.0000 Orbital Inclination(rad): 0.9620000984 Rate of Right Ascen(r/s): -0.7703178011E-008 SQRT(A) (m 1/2): 5153.725586 Right Ascen at Week(rad): 0.6438494870E+000 Argument of Perigee(rad): 0.324008875 Mean Anom(rad): -0.2552547027E+001 Af0(s): -0.6074905396E-003 Af1(s/s): 0.7275957614E-011 week: 354 ******** Week 354 almanac for PRN-29 ******** ID: 29 Health: 000 Eccentricity: 0.3270626068E-002 Time of Applicability(s): 405504.0000 Orbital Inclination(rad): 0.9626352624 Rate of Right Ascen(r/s): -0.8046049436E-008 SQRT(A) (m 1/2): 5153.725098 Right Ascen at Week(rad): 0.2839169989E+001 Argument of Perigee(rad): 2.748454275 Mean Anom(rad): 0.2211037064E+000 Af0(s): -0.3890991211E-003 Af1(s/s): 0.7275957614E-011 week: 354 ******** Week 354 almanac for PRN-30 ******** ID: 30 Health: 000 Eccentricity: 0.7905483246E-002 Time of Applicability(s): 405504.0000 Orbital Inclination(rad): 0.9362759597 Rate of Right Ascen(r/s): -0.7943188009E-008 SQRT(A) (m 1/2): 5153.730469 Right Ascen at Week(rad): 0.6615970005E+000 Argument of Perigee(rad): -2.344862657 Mean Anom(rad): -0.2708744171E+001 Af0(s): 0.9632110596E-004 Af1(s/s): 0.1091393642E-010 week: 354 ******** Week 354 almanac for PRN-31 ******** ID: 31 Health: 000 Eccentricity: 0.1085758209E-001 Time of Applicability(s): 405504.0000 Orbital Inclination(rad): 0.9547855951 Rate of Right Ascen(r/s): -0.7760323249E-008 SQRT(A) (m 1/2): 5153.719238 Right Ascen at Week(rad): 0.6940757481E+000 Argument of Perigee(rad): 0.932622868 Mean Anom(rad): 0.2617346480E+001 Af0(s): -0.1716613770E-003 Af1(s/s): 0.3637978807E-011 week: 354 ******** Week 354 almanac for PRN-32 ******** ID: 32 Health: 000 Eccentricity: 0.9214878082E-002 Time of Applicability(s): 405504.0000 Orbital Inclination(rad): 0.9676926053 Rate of Right Ascen(r/s): -0.8057478483E-008 SQRT(A) (m 1/2): 5153.663574 Right Ascen at Week(rad): -0.3855935599E+000 Argument of Perigee(rad): -2.022917315 Mean Anom(rad): 0.9516732918E+000 Af0(s): -0.1516342163E-003 Af1(s/s): 0.1818989404E-010 week: 354